[[{"header":{"parameterUnit":"m.s-1","parameterCategory":1,"la1":30.2992,"la2":30.254,"lo1":-89.0895,"lo2":-89.0443,"dy":0.0025,"dx":0.0025,"nx":19,"ny":19,"refTime":"2026-04-05T21:00:00:Z","depth":0,"parameterNumber":2,"parameterNumberName":"U-component_of_WINDS"},"data":[0,0,0,-4.4569,-4.4573,-4.4712,-4.4713,-4.4941,-4.4944,0,0,0,0,0,0,0,0,0,0,0,-4.4559,-4.4561,-4.4569,-4.4573,-4.4712,-4.4713,-4.4941,-4.4944,0,0,0,0,0,0,0,0,0,0,0,-4.4557,-4.456,-4.4564,-4.4574,-4.4712,-4.4713,-4.494,-4.4817,0,0,0,0,0,0,0,0,0,0,-4.4673,-4.4694,-4.456,-4.4564,-4.4575,-4.4712,-4.4713,-4.481,-4.4825,-4.49,0,-4.4975,0,-4.4963,-4.4962,-4.4963,0,0,0,-4.455,-4.4682,-4.4691,-4.4564,-4.4576,-4.4712,-4.4643,-4.4818,-4.4834,-4.4919,-4.4977,-4.4984,-4.4967,-4.4964,-4.4965,-4.5472,-4.5475,0,0,-4.4542,-4.4601,-4.468,-4.4704,-4.4685,-4.4639,-4.4648,-4.4827,-4.4895,-4.4978,-4.4989,-4.4971,-4.4966,-4.4968,-4.5469,-4.5473,0,0,0,-4.4536,-4.4597,-4.46,-4.4696,-4.4717,-4.4643,-4.4653,-4.4887,-4.4883,-4.4991,-4.4973,-4.4967,-4.4971,-4.5465,-4.547,-4.5698,0,0,0,-4.453,-4.4592,-4.4598,-4.4635,-4.4715,-4.4804,-4.471,-4.487,-4.4889,-4.4972,-4.4968,-4.4974,-4.5461,-4.5468,-4.5683,-4.5798,0,0,0,-4.4539,-4.4593,-4.4624,-4.4638,-4.47,-4.4799,-4.4805,-4.4873,-4.4879,-4.4963,-4.4974,-4.5458,-4.5466,-4.5671,-4.5776,-4.5949,0,0,0,-4.4566,-4.4826,-4.4628,-4.491,-4.4699,-4.4938,-4.4803,-4.4978,-4.5078,-4.4969,-4.5461,-4.547,-4.5666,-4.5763,-4.5936,-4.6108,-4.6184,0,0,-4.4926,-4.4871,-4.5032,-4.486,-4.5149,-4.4912,-4.5234,-4.527,-4.5225,-4.5392,-4.5403,-4.5688,-4.5775,-4.5946,-4.6584,-4.6645,0,0,0,-4.5166,-4.5284,-4.5347,-4.5443,-4.5475,-4.5512,-4.5491,-4.5504,-4.5642,-4.5322,-4.5793,-4.5843,-4.5941,-4.6021,-4.6073,-4.6154,-4.5508,-4.5507,-4.5506,-4.5765,-4.569,-4.5951,-4.5893,-4.5988,-4.5961,-4.6031,-4.6043,-4.5942,-4.6054,-4.6106,-4.6502,-4.6597,-4.6635,-4.6721,-4.6186,-4.6187,-4.6188,-4.6189,-4.6289,-4.6444,-4.6297,-4.6499,-4.6418,-4.6587,-4.6569,-4.6491,-4.6636,-4.6458,-4.654,-4.6356,-4.6705,-4.6775,-4.6205,-4.6202,-4.62,-4.6199,-4.6198,-4.6676,-4.6737,-4.6745,-4.6873,-4.6981,-4.691,-4.7055,-4.6975,-4.6901,-4.6982,-4.7028,-4.7024,-4.7012,-4.7008,-4.701,-4.7011,-4.7012,-4.7013,-4.7014,-4.7077,-4.7078,-4.721,-4.7262,-4.7311,-4.7365,-4.7337,-4.7383,-4.7414,-4.7345,-4.7345,-4.7233,-4.6751,-4.6634,-4.7036,-4.7032,-4.7029,-4.7027,-4.7026,-4.7644,-4.7501,-4.7706,-4.7755,-4.7806,-4.7918,-4.781,-4.7911,-4.7936,-4.8011,-4.7878,-4.7534,-4.7473,-4.7431,-4.7334,-4.7892,-4.7892,-4.7892,-4.7892,-4.7974,-4.7932,-4.8121,-4.8204,-4.8276,-4.8198,-4.8431,-4.841,-4.8366,-4.8377,-4.8283,-4.8145,-4.8105,-4.8068,-4.8012,-4.792,-4.8616,-4.8616,-4.8617,-4.8318,-4.8279,-4.8494,-4.8446,-4.8479,-4.8509,-4.8725,-4.8826,-4.8746,-4.8645,-4.8384,-4.8354,-4.813,-4.8061,-4.796,-4.7875,-4.7705,0,0]},{"header":{"parameterUnit":"m.s-1","parameterCategory":1,"la1":30.2992,"la2":30.254,"lo1":-89.0895,"lo2":-89.0443,"dy":0.0025,"dx":0.0025,"nx":19,"ny":19,"refTime":"2026-04-05T21:00:00:Z","depth":0,"parameterNumber":3,"parameterNumberName":"V-component_of_WINDS"},"data":[0,0,0,-4.1171,-4.1174,-4.1275,-4.1276,-4.1413,-4.1414,0,0,0,0,0,0,0,0,0,0,0,-4.1149,-4.115,-4.1171,-4.1174,-4.1275,-4.1276,-4.1412,-4.1414,0,0,0,0,0,0,0,0,0,0,0,-4.1148,-4.115,-4.1151,-4.1174,-4.1275,-4.1276,-4.1412,-4.1332,0,0,0,0,0,0,0,0,0,0,-4.1232,-4.122,-4.1149,-4.1151,-4.1175,-4.1275,-4.1276,-4.1328,-4.1337,-4.1371,0,-4.1405,0,-4.1412,-4.1424,-4.1424,0,0,0,-4.1168,-4.1212,-4.1233,-4.1151,-4.1176,-4.1275,-4.1228,-4.1333,-4.1343,-4.1383,-4.1407,-4.1411,-4.1414,-4.1425,-4.1426,-4.1641,-4.1642,0,0,-4.1162,-4.1171,-4.1226,-4.124,-4.1228,-4.1225,-4.1231,-4.1339,-4.1365,-4.1407,-4.1414,-4.1416,-4.1426,-4.1427,-4.164,-4.1641,0,0,0,-4.115,-4.1167,-4.1185,-4.1234,-4.1252,-4.1228,-4.1235,-4.136,-4.1365,-4.1416,-4.1418,-4.1427,-4.1429,-4.1638,-4.164,-4.171,0,0,0,-4.1147,-4.116,-4.1183,-4.1189,-4.1251,-4.1308,-4.1254,-4.1358,-4.137,-4.1417,-4.1427,-4.143,-4.1637,-4.1639,-4.1705,-4.1742,0,0,0,-4.114,-4.1159,-4.1176,-4.1189,-4.1233,-4.1306,-4.1318,-4.136,-4.1372,-4.1425,-4.143,-4.1636,-4.1639,-4.1701,-4.1735,-4.1799,0,0,0,-4.1134,-4.1239,-4.1178,-4.1295,-4.1232,-4.135,-4.1317,-4.1404,-4.1458,-4.1428,-4.1637,-4.164,-4.17,-4.173,-4.1794,-4.1853,-4.1879,0,0,-4.1271,-4.1256,-4.1324,-4.1272,-4.1403,-4.1334,-4.1474,-4.1515,-4.1513,-4.1597,-4.1602,-4.1707,-4.1734,-4.1798,-4.2025,-4.2045,0,0,0,-4.137,-4.1419,-4.1452,-4.1504,-4.1538,-4.1569,-4.1588,-4.1602,-4.1674,-4.1559,-4.1748,-4.1764,-4.1801,-4.1828,-4.1846,-4.1876,-4.1654,-4.1653,-4.1653,-4.1576,-4.1566,-4.1677,-4.1678,-4.1728,-4.1745,-4.1783,-4.1805,-4.1782,-4.1826,-4.1851,-4.199,-4.2023,-4.2036,-4.2067,-4.1883,-4.1883,-4.1884,-4.1884,-4.1774,-4.184,-4.1803,-4.1898,-4.1885,-4.1963,-4.1981,-4.1961,-4.203,-4.1972,-4.2004,-4.1939,-4.2059,-4.2085,-4.1889,-4.1888,-4.1887,-4.1887,-4.1887,-4.1906,-4.1936,-4.1951,-4.2022,-4.2077,-4.2074,-4.214,-4.2127,-4.2115,-4.2146,-4.2169,-4.2168,-4.2162,-4.2158,-4.2159,-4.2159,-4.216,-4.216,-4.216,-4.2036,-4.2052,-4.2111,-4.2153,-4.2181,-4.2218,-4.2233,-4.226,-4.2287,-4.2272,-4.2272,-4.2241,-4.2074,-4.2031,-4.2168,-4.2166,-4.2165,-4.2165,-4.2164,-4.2238,-4.2189,-4.228,-4.2309,-4.2355,-4.2408,-4.2389,-4.2445,-4.2466,-4.2498,-4.246,-4.234,-4.2323,-4.2309,-4.2273,-4.2464,-4.2464,-4.2464,-4.2464,-4.2348,-4.2338,-4.2425,-4.2471,-4.2515,-4.2506,-4.2605,-4.2616,-4.2619,-4.263,-4.2601,-4.2553,-4.2539,-4.253,-4.2511,-4.2477,-4.2716,-4.2717,-4.2717,-4.2469,-4.2462,-4.255,-4.2554,-4.2587,-4.2615,-4.2706,-4.2758,-4.2752,-4.2727,-4.2638,-4.2627,-4.2549,-4.2525,-4.2497,-4.2468,-4.2406,0,0]}]]